Location: Godiavel Galaoual
(15.2485°N, 12.6604°W)
Time: 07:46:36
(UTC+00:00)

METEOR M2 - Pass Details

Date: 29 July 2021
Orbit: 818 x 827 km, 98.5° (Epoch: 27 September)

Event Time Altitude Azimuth Distance (km) Brightness Sun altitude
Rises 19:56:25 0° 168° (SSE) 3,353 ? -8.6°
Reaches altitude 10° 19:58:46 10° 168° (SSE) 2,422 ? -9.2°
Maximum altitude 20:04:08 87° 256° (WSW) 831 ? -10.4°
Drops below altitude 10° 20:09:32 10° 347° (NNW) 2,424 ? -11.6°
Sets 20:11:53 0° 348° (NNW) 3,357 ? -12.1°
